Weather reports worldwide

Advertisment
Zadar/Zemunik, Croatia (14431): temperature & dewpoint: 13.08.2018 21:00:00 - 19.08.2018 21:00:00 (CEST)Zadar/Zemunik, Croatia (14431): wind speed: 13.08.2018 21:00:00 - 19.08.2018 21:00:00 (CEST)Zadar/Zemunik, Croatia (14431): wind direction: 13.08.2018 21:00:00 - 19.08.2018 21:00:00 (CEST)Zadar/Zemunik, Croatia (14431): reduced air pressure: 13.08.2018 21:00:00 - 19.08.2018 21:00:00 (CEST)Zadar/Zemunik, Croatia (14431): visibility: 13.08.2018 21:00:00 - 19.08.2018 21:00:00 (CEST)
Date & Time tt [°C] td [°C] ff [km/h] ff [kn] dd ppp [hPa] vv [km]
19.08.2018 21:00:00 24,0 16,0 5 3 E - 10
19.08.2018 20:00:00 24,8 18,0 0 0 N 1014,3 20
19.08.2018 19:00:00 25,0 18,0 5 3 WNW - 10
19.08.2018 18:00:00 25,0 16,0 11 6 NE - 10
19.08.2018 17:00:00 25,7 18,7 11 6 SE 1014,9 20
19.08.2018 16:00:00 27,0 17,0 8 4 - - 10
19.08.2018 15:00:00 27,0 19,0 21 11 NW - 10
19.08.2018 14:00:00 33,4 14,4 11 6 SE 1014,8 30
19.08.2018 13:00:00 33,0 15,0 11 6 ENE - 10
19.08.2018 12:00:00 33,0 14,0 13 7 - - 10
19.08.2018 11:00:00 31,9 14,8 18 10 ENE 1015,9 20
19.08.2018 10:00:00 31,0 15,0 21 11 ENE - 10
19.08.2018 09:00:00 30,0 16,0 16 9 ENE - 10
19.08.2018 08:00:00 27,3 16,3 11 6 ENE 1015,6 20
19.08.2018 07:00:00 20,0 17,0 5 3 - - 10
19.08.2018 06:00:00 19,0 16,0 2 1 - - 10
19.08.2018 05:00:00 19,0 16,7 4 2 E 1015,5 20
19.08.2018 04:00:00 19,0 17,0 2 1 - - 10
19.08.2018 03:00:00 19,0 17,0 4 2 - - 10
19.08.2018 02:00:00 19,4 17,1 4 2 SE 1016,0 20
19.08.2018 01:00:00 20,0 17,0 2 1 - - 10
19.08.2018 00:00:00 21,0 17,0 0 0 N - 10
18.08.2018 23:00:00 22,5 18,1 7 4 N 1016,3 20
18.08.2018 22:00:00 22,0 19,0 5 3 NW - 10
18.08.2018 21:00:00 23,0 18,0 9 5 NE - 10
18.08.2018 20:00:00 23,6 19,1 7 4 N 1015,8 20
18.08.2018 19:00:00 25,0 18,0 4 2 - - 10
18.08.2018 18:00:00 26,0 17,0 9 5 ENE - 10
18.08.2018 17:00:00 26,1 17,0 14 8 NE 1015,9 25
18.08.2018 16:00:00 28,0 17,0 16 9 E - 10
18.08.2018 15:00:00 32,0 17,0 24 13 W - 10
18.08.2018 14:00:00 32,7 15,8 18 10 W 1014,7 25
18.08.2018 13:00:00 32,0 16,0 15 8 W - 10
18.08.2018 12:00:00 32,0 15,0 5 3 - - 10
18.08.2018 11:00:00 30,9 14,8 11 6 E 1015,5 30
18.08.2018 10:00:00 30,0 16,0 13 7 ENE - 10
18.08.2018 09:00:00 28,0 18,0 5 3 - - 10
18.08.2018 08:00:00 23,5 17,7 4 2 SE 1015,1 20
18.08.2018 07:00:00 19,0 17,0 4 2 SSE - 10
18.08.2018 06:00:00 18,0 16,0 4 2 SE - 10
18.08.2018 05:00:00 17,7 16,1 4 2 N 1014,9 20
18.08.2018 04:00:00 18,0 16,0 0 0 N - 10
18.08.2018 03:00:00 18,0 16,0 0 0 N - 10
18.08.2018 02:00:00 19,5 16,9 7 4 SE 1015,1 20
18.08.2018 01:00:00 20,0 17,0 5 3 E - 10
18.08.2018 00:00:00 20,0 17,0 2 1 - - 10
17.08.2018 23:00:00 20,7 17,1 0 0 N 1014,5 20
17.08.2018 22:00:00 22,0 17,0 2 1 - - 10
17.08.2018 21:00:00 23,0 17,0 0 0 N - 10
17.08.2018 20:00:00 26,0 16,8 4 2 ESE 1014,0 30
17.08.2018 19:00:00 28,0 17,0 5 3 ESE - 10
17.08.2018 18:00:00 29,0 16,0 5 3 - - 10
17.08.2018 17:00:00 31,5 14,9 13 7 WNW 1013,2 10
17.08.2018 16:00:00 31,0 15,0 18 10 NW - 10
17.08.2018 15:00:00 31,0 16,0 18 10 WSW - 10
17.08.2018 14:00:00 31,2 15,8 14 8 WSW 1013,1 30
17.08.2018 13:00:00 30,0 16,0 11 6 - - 10
17.08.2018 12:00:00 30,0 15,0 5 3 - - 10
17.08.2018 11:00:00 28,5 15,7 4 2 S 1014,1 30
17.08.2018 10:00:00 28,0 16,0 5 3 ENE - 10
17.08.2018 09:00:00 26,0 16,0 8 4 ESE - 10
17.08.2018 08:00:00 23,8 16,8 5 3 SE 1013,7 10
17.08.2018 07:00:00 21,0 16,0 5 3 ESE - 10
17.08.2018 06:00:00 22,0 15,0 8 4 ESE - 10
17.08.2018 05:00:00 22,3 15,5 7 4 SSE 1013,2 30
17.08.2018 04:00:00 25,0 15,0 11 6 E - 10
17.08.2018 03:00:00 25,0 15,0 13 7 E - 10
17.08.2018 02:00:00 25,6 14,9 11 6 E 1013,1 30
17.08.2018 01:00:00 25,0 15,0 9 5 E - 10
17.08.2018 00:00:00 24,0 15,0 8 4 E - 10
16.08.2018 23:00:00 23,0 16,4 0 0 N 1013,4 30
16.08.2018 22:00:00 23,0 17,0 4 2 E - 10
16.08.2018 21:00:00 24,0 15,0 4 2 - - 10
16.08.2018 20:00:00 26,8 13,6 11 6 WNW 1012,5 30
16.08.2018 19:00:00 29,0 13,0 21 11 WNW - 10
16.08.2018 18:00:00 30,0 13,0 22 12 WNW - 10
16.08.2018 17:00:00 32,0 13,5 7 4 E 1012,4 30
16.08.2018 16:00:00 32,0 12,0 9 5 - - 10
16.08.2018 15:00:00 31,0 13,0 9 5 - - 10
16.08.2018 14:00:00 30,8 12,4 18 10 WNW 1013,7 30
16.08.2018 13:00:00 31,0 12,0 21 11 E - 10
16.08.2018 12:00:00 30,0 13,0 16 9 ENE - 10
16.08.2018 11:00:00 29,1 11,9 16 9 ENE 1014,4 10
16.08.2018 10:00:00 28,0 13,0 15 8 NE - 10
16.08.2018 09:00:00 26,0 14,0 8 4 ENE - 10
16.08.2018 08:00:00 25,5 13,3 11 6 ENE 1014,2 30
16.08.2018 07:00:00 24,0 13,0 5 3 NE - 10
16.08.2018 06:00:00 23,0 13,0 8 4 ENE - 10
16.08.2018 05:00:00 23,5 12,5 7 4 ENE 1013,8 30
16.08.2018 04:00:00 23,0 12,0 8 4 ENE - 10
16.08.2018 03:00:00 24,0 12,0 15 8 NE - 10
16.08.2018 02:00:00 25,1 12,3 18 10 NE 1013,8 30
16.08.2018 01:00:00 25,0 14,0 16 9 NE - 10
16.08.2018 00:00:00 25,0 14,0 16 9 NE - 10
15.08.2018 23:00:00 25,0 13,6 14 8 NE 1014,1 30
15.08.2018 22:00:00 25,0 14,0 16 9 NE - 10
15.08.2018 21:00:00 25,0 13,0 11 6 ENE - 10
15.08.2018 20:00:00 26,4 12,7 9 5 ENE 1013,1 10
15.08.2018 19:00:00 28,0 13,0 15 8 ENE - 10
15.08.2018 18:00:00 29,0 14,0 15 8 ENE - 10
15.08.2018 17:00:00 29,9 13,6 21 11 ENE 1012,5 10
15.08.2018 16:00:00 29,0 14,0 16 9 ENE - 10
15.08.2018 15:00:00 28,0 14,0 15 8 ENE - 10
15.08.2018 14:00:00 26,9 13,9 13 7 E 1013,3 10
15.08.2018 13:00:00 27,0 13,0 11 6 NE - 10
15.08.2018 12:00:00 27,0 13,0 16 9 ENE - 10
15.08.2018 11:00:00 26,0 13,4 18 10 ENE 1013,1 30
15.08.2018 10:00:00 25,0 13,0 18 10 NE - 10
15.08.2018 09:00:00 26,0 14,0 22 12 NE - 10
15.08.2018 08:00:00 24,4 14,4 18 10 NE 1012,0 30
15.08.2018 07:00:00 22,0 17,0 8 4 NNE - 10
15.08.2018 06:00:00 21,0 18,0 5 3 NNE - 10
15.08.2018 05:00:00 20,0 19,0 5 3 WNW 1011,9 10
15.08.2018 04:00:00 21,0 19,0 2 1 - - 10
15.08.2018 03:00:00 20,0 19,0 2 1 - - 10
15.08.2018 02:00:00 20,2 18,8 5 3 N 1012,4 10
15.08.2018 01:00:00 20,0 19,0 4 2 NE - 10
15.08.2018 00:00:00 20,0 19,0 0 0 N - 10
14.08.2018 23:00:00 20,3 19,0 4 2 W 1013,0 30
14.08.2018 22:00:00 20,0 19,0 5 3 NE - 10
14.08.2018 21:00:00 21,0 19,0 2 1 - - 10
14.08.2018 20:00:00 21,9 18,6 0 0 N 1012,3 0,1
14.08.2018 19:00:00 24,0 18,0 0 0 N - 10
14.08.2018 18:00:00 23,0 18,0 16 9 SW - 10
14.08.2018 17:00:00 23,7 17,6 4 2 ENE 1012,3 25
14.08.2018 16:00:00 23,0 17,0 15 8 ESE - 10
14.08.2018 15:00:00 23,0 18,0 16 9 E - 10
14.08.2018 14:00:00 19,5 17,7 22 12 ESE 1013,5 15
14.08.2018 13:00:00 19,0 18,0 21 11 SE - 10
14.08.2018 12:00:00 19,0 17,0 15 8 SE - 10
14.08.2018 11:00:00 18,4 16,9 18 10 ESE 1014,0 10
14.08.2018 10:00:00 19,0 17,0 22 12 SE - 4,0
14.08.2018 09:00:00 20,0 18,0 34 18 S - 10
14.08.2018 08:00:00 22,8 17,6 18 10 ESE 1011,9 10
14.08.2018 07:00:00 23,0 18,0 11 6 ESE - 10
14.08.2018 06:00:00 21,0 18,0 8 4 SE - 10
14.08.2018 05:00:00 22,4 18,0 11 6 SE 1011,2 20
14.08.2018 04:00:00 22,0 17,0 9 5 SE - 10
14.08.2018 03:00:00 23,0 17,0 9 5 SE - 10
14.08.2018 02:00:00 23,0 16,6 7 4 SE 1011,9 20
14.08.2018 01:00:00 22,0 16,0 8 4 ESE - 10
14.08.2018 00:00:00 22,0 17,0 5 3 ESE - 10
13.08.2018 23:00:00 21,3 16,7 7 4 E 1011,8 25
13.08.2018 22:00:00 23,0 17,0 5 3 ESE - 10
13.08.2018 21:00:00 24,0 16,0 5 3 SE - 10

tt = temperature
td = dewpoint
ff = wind speed
dd = wind direction
ppp = reduced air pressure
vv = visibility

Next stations